#timestamp,LO_Frequency,Hit,StdDev 
1581303615.1,286047001.2,N
1581303616.0,286047001.2,N
1581303635.8,286046998.7,N
1581303655.7,286046997.1,N
1581303675.5,286046998.0,N
1581303695.3,286046999.6,N
1581303715.2,286046997.2,N
1581303735.0,286046996.7,N
1581303735.9,286046996.7,N
1581303755.8,286046999.2,N
1581303775.6,286046995.1,Y
1581303795.4,286046999.7,P
1581303815.3,286046999.9,N
1581303835.1,286046998.2,P
1581303855.8,286047000.5,N
1581303875.7,286046999.7,N
1581303895.5,286047000.6,N
1581303915.4,286047002.7,Y
1581303935.2,286047001.2,P
1581303955.0,286047000.1,N
1581303955.9,286047000.1,N
1581303975.8,286047002.5,Y
1581303995.6,286047002.8,P
1581304015.5,286047001.9,N
1581304035.3,286047000.4,N
1581304055.1,286046998.4,N
1581304075.9,286047000.8,N
1581304095.7,286046999.9,N
1581304115.5,286046999.7,N
1581304135.4,286047003.2,N
1581304155.2,286047004.3,N
1581304175.1,286047002.0,N
1581304176.0,286047002.0,N
1581304195.8,286047002.2,N
1581304215.6,286047004.2,N
1581304235.5,286047001.5,N
1581304255.3,286047004.3,N
1581304275.1,286047000.4,N
1581304295.9,286047003.9,N
1581304315.7,286047001.3,N
1581304335.6,286046999.8,N
1581304355.4,286047002.1,N
1581304375.2,286047002.3,N
1581304395.1,286047002.6,N
1581304396.0,286047002.6,N
1581304415.8,286047000.2,N
1581304435.6,286046999.8,N
1581304455.5,286047000.0,N
1581304475.3,286047001.0,N
1581304495.2,286047002.4,N
1581304515.9,286047001.8,N
1581304535.7,286047002.2,N
1581304555.6,286047005.8,Y
1581304575.4,286047001.7,P
1581304595.2,286047003.1,P
1581304615.1,286047004.3,P
1581304616.0,286047004.3,Y
1581304635.8,286046999.6,P
1581304655.7,286046999.0,N
1581304675.5,286046998.1,N
1581304695.3,286046999.3,N
1581304715.2,286046999.6,N
1581304735.0,286046998.0,N
1581304735.9,286046998.0,N
1581304755.8,286046995.5,Y
1581304775.6,286046995.3,P
1581304795.4,286046993.5,P
1581304815.3,286046993.6,N
1581304835.1,286046993.4,N
1581304855.8,286046994.5,N
1581304875.7,286046993.9,N
1581304895.5,286046994.5,N
1581304915.4,286046996.4,N
1581304935.2,286046995.2,N
1581304955.0,286046996.1,N
1581304955.9,286046996.1,N
1581304975.8,286046995.3,N
1581304995.6,286046995.0,Y
1581305015.4,286047001.9,P
1581305035.3,286047002.2,N
1581305055.1,286047002.2,N
1581305075.9,286046999.7,N
1581305095.7,286047002.5,N
1581305115.5,286046999.8,N
1581305135.4,286047002.6,N
1581305155.2,286046998.1,N
1581305175.0,286046999.4,N
